Time,TemperatureF,DewpointF,PressureIn,WindDirection,WindDirectionDegrees,WindSpeedMPH,WindSpeedGustMPH,Humidity,HourlyPrecipIn,Conditions,Clouds,dailyrainin,SolarRadiationWatts/m^2,SoftwareType,DateUTC
2013-05-18 00:03:00,62.3,56.4,29.54,East,80,5.0,5.0,81,0.00,RA,,0.00,0.0,WeatherDisplay:10.37,2013-05-17 22:03:00,
2013-05-18 00:08:00,62.2,56.3,29.54,ENE,78,5.8,5.8,81,0.00,RA,,0.00,0.0,WeatherDisplay:10.37,2013-05-17 22:08:00,
2013-05-18 00:13:00,62.1,56.5,29.54,East,80,4.6,4.6,82,0.00,CLR,,0.00,0.0,WeatherDisplay:10.37,2013-05-17 22:13:00,
2013-05-18 00:18:00,62.0,56.4,29.54,ESE,115,6.9,6.9,82,0.00,CLR,,0.00,0.0,WeatherDisplay:10.37,2013-05-17 22:18:00,
2013-05-18 00:23:00,62.0,56.4,29.54,East,86,8.1,8.1,82,0.00,CLR,,0.00,0.0,WeatherDisplay:10.37,2013-05-17 22:23:00,
2013-05-18 00:28:00,61.9,56.3,29.54,ESE,105,5.8,5.8,82,0.00,CLR,,0.00,0.0,WeatherDisplay:10.37,2013-05-17 22:28:00,
2013-05-18 00:33:00,61.9,56.3,29.54,East,86,7.0,7.0,82,0.00,CLR,,0.00,0.0,WeatherDisplay:10.37,2013-05-17 22:33:00,
2013-05-18 00:38:00,61.8,56.2,29.54,ENE,71,5.8,5.8,82,0.00,CLR,,0.00,0.0,WeatherDisplay:10.37,2013-05-17 22:38:00,
2013-05-18 00:43:00,61.8,56.2,29.54,East,88,6.0,6.0,82,0.00,CLR,,0.00,0.0,WeatherDisplay:10.37,2013-05-17 22:43:00,
2013-05-18 00:48:00,61.7,56.1,29.54,ESE,113,5.0,5.0,82,0.00,CLR,,0.00,0.0,WeatherDisplay:10.37,2013-05-17 22:48:00,
2013-05-18 00:53:00,61.5,56.0,29.54,East,79,4.6,4.6,82,0.00,CLR,,0.00,0.0,WeatherDisplay:10.37,2013-05-17 22:53:00,
2013-05-18 00:58:00,61.3,55.8,29.54,East,92,5.0,5.0,82,0.00,CLR,,0.00,0.0,WeatherDisplay:10.37,2013-05-17 22:58:00,
2013-05-18 01:03:00,61.2,56.0,29.54,East,96,5.8,5.8,83,0.00,CLR,,0.00,0.0,WeatherDisplay:10.37,2013-05-17 23:03:00,
2013-05-18 01:08:00,61.0,55.8,29.54,ESE,108,4.6,4.6,83,0.00,CLR,,0.00,0.0,WeatherDisplay:10.37,2013-05-17 23:08:00,
2013-05-18 01:13:00,60.9,55.7,29.55,ESE,106,4.0,4.0,83,0.00,CLR,,0.00,0.0,WeatherDisplay:10.37,2013-05-17 23:13:00,
2013-05-18 01:18:00,60.7,55.5,29.55,ESE,103,4.0,4.0,83,0.00,CLR,,0.00,0.0,WeatherDisplay:10.37,2013-05-17 23:18:00,
2013-05-18 01:23:00,60.6,55.4,29.55,East,100,4.0,4.0,83,0.00,CLR,,0.00,0.0,WeatherDisplay:10.37,2013-05-17 23:23:00,
2013-05-18 01:28:00,60.5,55.3,29.55,East,100,2.3,2.3,83,0.00,CLR,,0.00,0.0,WeatherDisplay:10.37,2013-05-17 23:28:00,
2013-05-18 01:33:00,60.3,55.1,29.55,East,100,2.3,2.3,83,0.00,CLR,,0.00,0.0,WeatherDisplay:10.37,2013-05-17 23:33:00,
2013-05-18 01:38:00,60.1,54.9,29.55,East,100,5.0,5.0,83,0.00,CLR,,0.00,0.0,WeatherDisplay:10.37,2013-05-17 23:38:00,
2013-05-18 01:43:00,59.9,54.7,29.55,East,100,4.0,4.0,83,0.00,CLR,,0.00,0.0,WeatherDisplay:10.37,2013-05-17 23:43:00,
2013-05-18 01:48:00,59.7,54.5,29.55,East,100,3.5,3.5,83,0.00,CLR,,0.00,0.0,WeatherDisplay:10.37,2013-05-17 23:48:00,
2013-05-18 01:53:00,59.6,54.8,29.55,East,100,2.3,2.3,84,0.00,CLR,,0.00,0.0,WeatherDisplay:10.37,2013-05-17 23:53:00,
2013-05-18 01:58:00,59.4,54.2,29.55,East,100,2.0,2.0,83,0.00,CLR,,0.00,0.0,WeatherDisplay:10.37,2013-05-17 23:58:00,
2013-05-18 02:03:00,59.3,54.1,29.56,East,100,1.2,0.0,83,0.00,CLR,,0.00,0.0,WeatherDisplay:10.37,2013-05-18 00:03:00,
2013-05-18 02:08:00,59.2,54.4,29.55,East,100,0.0,0.0,84,0.00,CLR,,0.00,0.0,WeatherDisplay:10.37,2013-05-18 00:08:00,
2013-05-18 02:13:00,59.0,54.2,29.55,East,100,0.0,0.0,84,0.00,CLR,,0.00,0.0,WeatherDisplay:10.37,2013-05-18 00:13:00,
2013-05-18 02:18:00,58.8,54.0,29.56,East,100,0.0,0.0,84,0.00,CLR,,0.00,0.0,WeatherDisplay:10.37,2013-05-18 00:18:00,
2013-05-18 02:23:00,58.6,53.8,29.56,East,100,1.2,1.2,84,0.00,CLR,,0.00,0.0,WeatherDisplay:10.37,2013-05-18 00:23:00,
2013-05-18 02:28:00,58.4,53.6,29.56,East,100,1.2,1.2,84,0.00,CLR,,0.00,0.0,WeatherDisplay:10.37,2013-05-18 00:28:00,
2013-05-18 02:33:00,58.1,53.3,29.57,East,100,4.0,4.0,84,0.00,CLR,,0.00,0.0,WeatherDisplay:10.37,2013-05-18 00:33:00,
2013-05-18 02:38:00,57.9,52.8,29.57,East,100,4.0,4.0,83,0.00,CLR,,0.00,0.0,WeatherDisplay:10.37,2013-05-18 00:38:00,
2013-05-18 02:43:00,57.9,52.8,29.57,East,100,5.0,5.0,83,0.00,CLR,,0.00,0.0,WeatherDisplay:10.37,2013-05-18 00:43:00,
2013-05-18 02:48:00,58.0,52.9,29.56,East,101,6.9,6.9,83,0.00,CLR,,0.00,0.0,WeatherDisplay:10.37,2013-05-18 00:48:00,
2013-05-18 02:53:00,58.1,53.0,29.56,East,81,4.6,4.6,83,0.00,CLR,,0.00,0.0,WeatherDisplay:10.37,2013-05-18 00:53:00,
2013-05-18 02:58:00,58.1,53.0,29.56,East,79,6.9,6.9,83,0.00,CLR,,0.00,0.0,WeatherDisplay:10.37,2013-05-18 00:58:00,
2013-05-18 03:03:00,58.3,53.2,29.56,East,82,8.1,8.1,83,0.00,CLR,,0.00,0.0,WeatherDisplay:10.37,2013-05-18 01:03:00,
2013-05-18 03:08:00,58.4,53.3,29.56,ENE,74,6.9,6.9,83,0.00,CLR,,0.00,0.0,WeatherDisplay:10.37,2013-05-18 01:08:00,
2013-05-18 03:13:00,58.4,53.3,29.57,East,88,8.0,8.0,83,0.00,CLR,,0.00,0.0,WeatherDisplay:10.37,2013-05-18 01:13:00,
2013-05-18 03:18:00,58.5,53.4,29.57,East,88,6.9,6.9,83,0.00,CLR,,0.00,0.0,WeatherDisplay:10.37,2013-05-18 01:18:00,
2013-05-18 03:23:00,58.6,53.5,29.57,East,94,8.0,8.0,83,0.00,CLR,,0.00,0.0,WeatherDisplay:10.37,2013-05-18 01:23:00,
2013-05-18 03:28:00,58.6,53.5,29.57,ENE,78,6.9,6.9,83,0.00,CLR,,0.00,0.0,WeatherDisplay:10.37,2013-05-18 01:28:00,
2013-05-18 03:33:00,58.6,53.5,29.57,East,91,8.1,8.1,83,0.00,CLR,,0.00,0.0,WeatherDisplay:10.37,2013-05-18 01:33:00,
2013-05-18 03:38:00,58.6,53.5,29.56,East,84,6.0,6.0,83,0.00,CLR,,0.00,0.0,WeatherDisplay:10.37,2013-05-18 01:38:00,
2013-05-18 03:43:00,58.5,53.4,29.56,East,84,4.6,4.6,83,0.00,CLR,,0.00,0.0,WeatherDisplay:10.37,2013-05-18 01:43:00,
2013-05-18 03:48:00,58.4,53.3,29.56,East,90,5.8,5.8,83,0.00,CLR,,0.00,0.0,WeatherDisplay:10.37,2013-05-18 01:48:00,
2013-05-18 03:53:00,58.3,53.2,29.56,East,90,5.8,5.8,83,0.00,CLR,,0.00,0.0,WeatherDisplay:10.37,2013-05-18 01:53:00,
2013-05-18 03:58:00,58.3,53.2,29.56,ESE,116,5.0,5.0,83,0.00,CLR,,0.00,0.0,WeatherDisplay:10.37,2013-05-18 01:58:00,
2013-05-18 04:03:00,58.3,53.2,29.56,ESE,107,5.8,5.8,83,0.00,CLR,,0.00,0.0,WeatherDisplay:10.37,2013-05-18 02:03:00,
2013-05-18 04:08:00,58.2,53.1,29.56,ESE,103,5.0,5.0,83,0.00,CLR,,0.00,0.0,WeatherDisplay:10.37,2013-05-18 02:08:00,
2013-05-18 04:13:00,58.1,53.0,29.56,ESE,116,4.0,4.0,83,0.00,CLR,,0.00,0.0,WeatherDisplay:10.37,2013-05-18 02:13:00,
2013-05-18 04:18:00,58.1,53.0,29.56,SE,124,5.0,5.0,83,0.00,CLR,,0.00,0.0,WeatherDisplay:10.37,2013-05-18 02:18:00,
2013-05-18 04:23:00,57.9,52.8,29.56,SE,124,2.3,2.3,83,0.00,CLR,,0.00,0.0,WeatherDisplay:10.37,2013-05-18 02:23:00,
2013-05-18 04:28:00,57.9,52.8,29.57,SE,124,3.5,3.5,83,0.00,CLR,,0.00,0.0,WeatherDisplay:10.37,2013-05-18 02:28:00,
2013-05-18 04:33:00,57.7,52.6,29.57,SE,124,3.5,3.5,83,0.00,CLR,,0.00,0.0,WeatherDisplay:10.37,2013-05-18 02:33:00,
2013-05-18 04:38:00,57.6,52.5,29.57,SE,124,2.3,2.3,83,0.00,CLR,,0.00,0.0,WeatherDisplay:10.37,2013-05-18 02:38:00,
2013-05-18 04:43:00,57.5,52.4,29.57,SE,124,2.3,2.3,83,0.00,CLR,,0.00,0.0,WeatherDisplay:10.37,2013-05-18 02:43:00,
2013-05-18 04:48:00,57.5,52.4,29.57,SE,130,3.5,3.5,83,0.00,CLR,,0.00,0.0,WeatherDisplay:10.37,2013-05-18 02:48:00,
2013-05-18 04:53:00,57.5,52.4,29.57,SE,130,4.0,4.0,83,0.00,CLR,,0.00,0.0,WeatherDisplay:10.37,2013-05-18 02:53:00,
2013-05-18 04:58:00,57.5,52.4,29.57,SE,130,3.5,3.5,83,0.00,CLR,,0.00,0.0,WeatherDisplay:10.37,2013-05-18 02:58:00,
2013-05-18 05:03:00,57.5,52.4,29.57,SE,130,3.5,3.5,83,0.00,OVC,,0.00,0.0,WeatherDisplay:10.37,2013-05-18 03:03:00,
2013-05-18 05:08:00,57.6,52.5,29.57,SE,142,2.3,2.3,83,0.00,OVC,,0.00,0.0,WeatherDisplay:10.37,2013-05-18 03:08:00,
2013-05-18 05:13:00,57.7,52.6,29.57,SE,142,2.3,2.3,83,0.00,OVC,,0.00,0.0,WeatherDisplay:10.37,2013-05-18 03:13:00,
2013-05-18 05:18:00,57.7,52.6,29.57,SE,142,3.5,3.5,83,0.00,OVC,,0.00,0.0,WeatherDisplay:10.37,2013-05-18 03:18:00,
2013-05-18 05:23:00,57.7,52.6,29.57,SE,130,5.0,5.0,83,0.00,OVC,,0.00,0.0,WeatherDisplay:10.37,2013-05-18 03:23:00,
2013-05-18 05:28:00,57.8,52.7,29.57,South,174,5.8,5.8,83,0.00,OVC,,0.00,5.0,WeatherDisplay:10.37,2013-05-18 03:28:00,
2013-05-18 05:33:00,57.9,52.8,29.58,SSE,157,4.0,4.0,83,0.00,OVC,,0.00,5.0,WeatherDisplay:10.37,2013-05-18 03:33:00,
2013-05-18 05:38:00,57.9,52.8,29.58,South,182,5.8,5.8,83,0.00,OVC,,0.00,7.0,WeatherDisplay:10.37,2013-05-18 03:38:00,
2013-05-18 05:43:00,58.0,52.9,29.58,SE,135,6.0,6.0,83,0.00,OVC,,0.00,5.0,WeatherDisplay:10.37,2013-05-18 03:43:00,
2013-05-18 05:48:00,58.1,53.0,29.58,SE,130,4.6,4.6,83,0.00,OVC,,0.00,0.0,WeatherDisplay:10.37,2013-05-18 03:48:00,
2013-05-18 05:53:00,58.2,53.1,29.59,SE,133,4.0,4.0,83,0.00,OVC,,0.00,0.0,WeatherDisplay:10.37,2013-05-18 03:53:00,
2013-05-18 05:58:00,58.2,53.1,29.59,SSE,157,5.8,5.8,83,0.00,OVC,,0.00,0.0,WeatherDisplay:10.37,2013-05-18 03:58:00,
2013-05-18 06:01:00,58.3,53.2,29.59,South,184,7.0,7.0,83,0.00,OVC,,0.00,0.0,WeatherDisplay:10.37,2013-05-18 04:01:00,
2013-05-18 06:02:00,58.3,53.2,29.59,South,190,9.0,9.0,83,0.00,OVC,,0.00,0.0,WeatherDisplay:10.37,2013-05-18 04:02:00,
2013-05-18 06:03:00,58.3,53.2,29.59,South,187,9.2,9.2,83,0.00,OVC,,0.00,0.0,WeatherDisplay:10.37,2013-05-18 04:03:00,
2013-05-18 06:05:00,58.3,53.2,29.59,South,182,9.2,9.2,83,0.00,OVC,,0.00,0.0,WeatherDisplay:10.37,2013-05-18 04:05:00,
2013-05-18 06:09:00,58.2,53.1,29.60,SW,219,15.0,15.0,83,0.00,OVC,,0.00,0.0,WeatherDisplay:10.37,2013-05-18 04:09:00,
2013-05-18 06:14:00,57.8,53.0,29.60,SSW,198,12.7,12.7,84,0.00,OVC,,0.00,0.0,WeatherDisplay:10.37,2013-05-18 04:14:00,
2013-05-18 06:19:00,57.2,52.4,29.60,SSW,196,17.3,17.3,84,0.01,RA,,0.01,5.0,WeatherDisplay:10.37,2013-05-18 04:19:00,
2013-05-18 06:24:00,56.7,51.9,29.61,SSW,209,12.7,12.7,84,0.01,RA,,0.02,5.0,WeatherDisplay:10.37,2013-05-18 04:24:00,
2013-05-18 06:29:00,56.3,51.5,29.61,SW,219,16.1,16.1,84,0.02,RA,,0.02,5.0,WeatherDisplay:10.37,2013-05-18 04:29:00,
2013-05-18 06:34:00,55.9,51.1,29.62,SSW,201,15.0,15.0,84,0.02,RA,,0.02,5.0,WeatherDisplay:10.37,2013-05-18 04:34:00,
2013-05-18 06:39:00,55.5,50.7,29.62,SSW,211,12.7,12.7,84,0.02,RA,,0.02,5.0,WeatherDisplay:10.37,2013-05-18 04:39:00,
2013-05-18 06:44:00,55.2,50.4,29.62,SW,225,14.0,14.0,84,0.02,RA,,0.02,7.0,WeatherDisplay:10.37,2013-05-18 04:44:00,
2013-05-18 06:49:00,54.9,50.2,29.63,SSW,198,13.8,13.8,84,0.03,RA,,0.03,9.0,WeatherDisplay:10.37,2013-05-18 04:49:00,
2013-05-18 06:55:00,54.7,50.0,29.63,SSW,200,18.4,18.4,84,0.06,RA,,0.06,14.0,WeatherDisplay:10.37,2013-05-18 04:55:00,
2013-05-18 07:00:00,54.5,49.8,29.63,South,170,18.0,18.0,84,0.08,RA,,0.08,28.0,WeatherDisplay:10.37,2013-05-18 05:00:00,
2013-05-18 07:05:00,54.4,49.3,29.63,WSW,246,13.8,13.8,83,0.09,RA,,0.09,40.0,WeatherDisplay:10.37,2013-05-18 05:05:00,
2013-05-18 07:10:00,54.3,49.2,29.64,SW,229,20.0,20.0,83,0.11,RA,,0.11,44.0,WeatherDisplay:10.37,2013-05-18 05:10:00,
2013-05-18 07:15:00,54.1,49.1,29.64,WSW,251,16.0,16.0,83,0.12,RA,,0.12,49.0,WeatherDisplay:10.37,2013-05-18 05:15:00,
2013-05-18 07:20:00,54.1,49.1,29.65,WSW,253,15.0,15.0,83,0.12,RA,,0.13,25.0,WeatherDisplay:10.37,2013-05-18 05:20:00,
2013-05-18 07:25:00,54.0,49.0,29.65,SSW,207,12.7,12.7,83,0.11,RA,,0.13,26.0,WeatherDisplay:10.37,2013-05-18 05:25:00,
2013-05-18 07:30:00,53.9,48.9,29.66,SSW,204,11.5,11.5,83,0.11,OVC,,0.13,37.0,WeatherDisplay:10.37,2013-05-18 05:30:00,
2013-05-18 07:35:00,53.8,48.8,29.66,WSW,245,13.8,13.8,83,0.10,OVC,,0.13,56.0,WeatherDisplay:10.37,2013-05-18 05:35:00,
2013-05-18 07:40:00,53.9,48.9,29.66,WSW,243,16.1,16.1,83,0.11,RA,,0.13,65.0,WeatherDisplay:10.37,2013-05-18 05:40:00,
2013-05-18 07:45:00,53.9,48.9,29.67,SSW,209,16.1,16.1,83,0.12,RA,,0.14,58.0,WeatherDisplay:10.37,2013-05-18 05:45:00,
2013-05-18 07:50:00,53.8,48.8,29.67,SW,231,16.1,16.1,83,0.10,RA,,0.14,69.0,WeatherDisplay:10.37,2013-05-18 05:50:00,
2013-05-18 07:55:00,53.8,48.8,29.68,SW,233,16.1,16.1,83,0.09,RA,,0.15,53.0,WeatherDisplay:10.37,2013-05-18 05:55:00,
2013-05-18 08:00:00,53.8,48.8,29.68,WSW,254,11.5,11.5,83,0.07,RA,,0.15,46.0,WeatherDisplay:10.37,2013-05-18 06:00:00,
2013-05-18 08:05:00,53.7,48.7,29.69,WSW,238,15.0,15.0,83,0.06,OVC,,0.15,49.0,WeatherDisplay:10.37,2013-05-18 06:05:00,
2013-05-18 08:10:00,53.7,48.7,29.69,WSW,254,11.5,11.5,83,0.04,OVC,,0.15,54.0,WeatherDisplay:10.37,2013-05-18 06:10:00,
2013-05-18 08:15:00,53.7,48.7,29.69,SSW,209,16.1,16.1,83,0.04,RA,,0.16,54.0,WeatherDisplay:10.37,2013-05-18 06:15:00,
2013-05-18 08:20:00,53.7,48.7,29.70,WSW,241,12.0,12.0,83,0.03,RA,,0.16,65.0,WeatherDisplay:10.37,2013-05-18 06:20:00,
2013-05-18 08:25:00,53.7,48.7,29.70,SW,215,11.5,11.5,83,0.03,OVC,,0.16,83.0,WeatherDisplay:10.37,2013-05-18 06:25:00,
2013-05-18 08:30:00,53.7,48.7,29.71,West,271,8.1,8.1,83,0.03,OVC,,0.16,88.0,WeatherDisplay:10.37,2013-05-18 06:30:00,
2013-05-18 08:35:00,53.8,48.8,29.71,West,272,11.5,11.5,83,0.03,OVC,,0.16,104.0,WeatherDisplay:10.37,2013-05-18 06:35:00,
2013-05-18 08:40:00,53.9,48.9,29.71,WSW,254,9.2,9.2,83,0.02,OVC,,0.16,114.0,WeatherDisplay:10.37,2013-05-18 06:40:00,
2013-05-18 08:45:00,54.1,49.1,29.71,SW,232,9.2,9.2,83,0.02,RA,,0.17,123.0,WeatherDisplay:10.37,2013-05-18 06:45:00,
2013-05-18 08:50:00,54.2,49.1,29.71,WSW,252,10.4,10.4,83,0.02,RA,,0.17,102.0,WeatherDisplay:10.37,2013-05-18 06:50:00,
2013-05-18 08:55:00,54.2,49.1,29.71,West,260,15.0,15.0,83,0.02,OVC,,0.17,97.0,WeatherDisplay:10.37,2013-05-18 06:55:00,
2013-05-18 09:00:00,54.1,49.1,29.71,West,273,12.7,12.7,83,0.02,OVC,,0.17,98.0,WeatherDisplay:10.37,2013-05-18 07:00:00,
2013-05-18 09:05:00,54.0,49.0,29.71,WNW,288,10.4,10.4,83,0.02,OVC,,0.17,111.0,WeatherDisplay:10.37,2013-05-18 07:05:00,
2013-05-18 09:10:00,53.8,48.8,29.71,West,269,18.4,18.4,83,0.02,OVC,,0.17,128.0,WeatherDisplay:10.37,2013-05-18 07:10:00,
2013-05-18 09:15:00,53.6,48.6,29.69,West,265,15.0,15.0,83,0.01,OVC,,0.17,144.0,WeatherDisplay:10.37,2013-05-18 07:15:00,
2013-05-18 09:20:00,53.6,48.6,29.70,WSW,257,12.7,12.7,83,0.01,OVC,,0.17,160.0,WeatherDisplay:10.37,2013-05-18 07:20:00,
2013-05-18 09:25:00,53.8,48.8,29.70,West,261,15.0,15.0,83,0.02,RA,,0.17,213.0,WeatherDisplay:10.37,2013-05-18 07:25:00,
2013-05-18 09:30:00,53.9,48.9,29.72,SW,236,12.7,12.7,83,0.02,RA,,0.17,241.0,WeatherDisplay:10.37,2013-05-18 07:30:00,
2013-05-18 09:35:00,54.1,49.1,29.73,SW,232,10.4,10.4,83,0.02,OVC,,0.17,200.0,WeatherDisplay:10.37,2013-05-18 07:35:00,
2013-05-18 09:40:00,54.2,49.1,29.74,SW,221,8.1,8.1,83,0.02,OVC,,0.17,250.0,WeatherDisplay:10.37,2013-05-18 07:40:00,
2013-05-18 09:45:00,54.5,49.4,29.74,WSW,242,9.2,9.2,83,0.01,BKN,,0.17,348.0,WeatherDisplay:10.37,2013-05-18 07:45:00,
2013-05-18 09:50:00,55.0,49.9,29.74,SW,236,9.2,9.2,83,0.01,BKN,,0.17,404.0,WeatherDisplay:10.37,2013-05-18 07:50:00,
2013-05-18 09:55:00,55.3,50.5,29.73,West,264,10.4,10.4,84,0.01,BKN,,0.17,316.0,WeatherDisplay:10.37,2013-05-18 07:55:00,
2013-05-18 10:00:00,55.5,50.7,29.74,SW,226,12.7,12.7,84,0.01,OVC,,0.17,229.0,WeatherDisplay:10.37,2013-05-18 08:00:00,
2013-05-18 10:05:00,55.3,50.9,29.74,SW,233,11.5,11.5,85,0.01,OVC,,0.17,186.0,WeatherDisplay:10.37,2013-05-18 08:05:00,
2013-05-18 10:10:00,55.3,50.5,29.75,SW,228,11.5,11.5,84,0.01,OVC,,0.17,193.0,WeatherDisplay:10.37,2013-05-18 08:10:00,
2013-05-18 10:15:00,55.4,50.6,29.75,WSW,242,11.5,11.5,84,0.01,OVC,,0.17,229.0,WeatherDisplay:10.37,2013-05-18 08:15:00,
2013-05-18 10:20:00,55.5,50.7,29.75,SW,227,10.4,10.4,84,0.01,OVC,,0.17,283.0,WeatherDisplay:10.37,2013-05-18 08:20:00,
2013-05-18 10:25:00,55.9,51.1,29.75,SSW,192,15.0,15.0,84,0.00,OVC,,0.17,316.0,WeatherDisplay:10.37,2013-05-18 08:25:00,
2013-05-18 10:30:00,56.2,51.4,29.76,SSW,202,11.5,11.5,84,0.00,OVC,,0.17,325.0,WeatherDisplay:10.37,2013-05-18 08:30:00,
2013-05-18 10:35:00,56.5,51.7,29.76,SW,215,13.0,13.0,84,0.00,BKN,,0.17,350.0,WeatherDisplay:10.37,2013-05-18 08:35:00,
2013-05-18 10:40:00,56.8,52.3,29.76,SW,221,13.8,13.8,85,0.00,BKN,,0.17,355.0,WeatherDisplay:10.37,2013-05-18 08:40:00,
2013-05-18 10:45:00,57.1,52.0,29.77,SSW,203,15.0,15.0,83,0.00,OVC,,0.17,327.0,WeatherDisplay:10.37,2013-05-18 08:45:00,
2013-05-18 10:50:00,57.3,52.2,29.77,South,186,11.5,11.5,83,0.00,OVC,,0.17,362.0,WeatherDisplay:10.37,2013-05-18 08:50:00,
2013-05-18 10:55:00,57.6,52.8,29.77,WSW,244,13.8,13.8,84,0.00,BKN,,0.17,745.0,WeatherDisplay:10.37,2013-05-18 08:55:00,
2013-05-18 11:00:00,58.6,53.5,29.78,SW,216,13.8,13.8,83,0.00,SCT,,0.17,643.0,WeatherDisplay:10.37,2013-05-18 09:00:00,
2013-05-18 11:05:00,59.3,53.8,29.78,SW,219,14.0,14.0,82,0.00,SCT,,0.17,643.0,WeatherDisplay:10.37,2013-05-18 09:05:00,
2013-05-18 11:10:00,60.1,54.6,29.78,SSW,213,13.8,13.8,82,0.00,BKN,,0.17,401.0,WeatherDisplay:10.37,2013-05-18 09:10:00,
2013-05-18 11:15:00,60.6,54.4,29.78,SW,221,11.5,11.5,80,0.00,OVC,,0.17,246.0,WeatherDisplay:10.37,2013-05-18 09:15:00,
2013-05-18 11:20:00,60.1,53.9,29.78,South,186,14.0,14.0,80,0.00,BKN,,0.17,522.0,WeatherDisplay:10.37,2013-05-18 09:20:00,
2013-05-18 11:25:00,60.6,55.1,29.79,WSW,253,12.7,12.7,82,0.00,SCT,,0.17,956.0,WeatherDisplay:10.37,2013-05-18 09:25:00,
2013-05-18 11:30:00,61.5,54.9,29.79,South,188,16.1,16.1,79,0.00,OVC,,0.17,200.0,WeatherDisplay:10.37,2013-05-18 09:30:00,
2013-05-18 11:35:00,61.8,54.5,29.79,SSW,202,14.0,14.0,77,0.00,OVC,,0.17,200.0,WeatherDisplay:10.37,2013-05-18 09:35:00,
2013-05-18 11:40:00,61.0,54.1,29.80,SSW,204,9.2,9.2,78,0.00,OVC,,0.17,229.0,WeatherDisplay:10.37,2013-05-18 09:40:00,
2013-05-18 11:45:00,60.4,53.5,29.80,SSW,209,15.0,15.0,78,0.00,OVC,,0.17,197.0,WeatherDisplay:10.37,2013-05-18 09:45:00,
2013-05-18 11:50:00,60.1,53.6,29.80,SW,226,13.0,13.0,79,0.00,OVC,,0.17,253.0,WeatherDisplay:10.37,2013-05-18 09:50:00,
2013-05-18 11:55:00,60.7,53.4,29.80,SW,234,12.7,12.7,77,0.00,OVC,,0.17,302.0,WeatherDisplay:10.37,2013-05-18 09:55:00,
2013-05-18 12:00:00,60.6,54.4,29.80,SW,221,13.8,13.8,80,0.00,OVC,,0.17,332.0,WeatherDisplay:10.37,2013-05-18 10:00:00,
2013-05-18 12:05:00,61.2,54.6,29.80,SSW,209,12.7,12.7,79,0.00,FEW,,0.17,882.0,WeatherDisplay:10.37,2013-05-18 10:05:00,
2013-05-18 12:10:00,62.7,55.0,29.80,SSW,193,16.0,16.0,76,0.00,FEW,,0.17,914.0,WeatherDisplay:10.37,2013-05-18 10:10:00,
2013-05-18 12:15:00,63.1,55.8,29.80,SSW,212,15.0,15.0,77,0.00,CLR,,0.17,1009.0,WeatherDisplay:10.37,2013-05-18 10:15:00,
2013-05-18 12:20:00,63.0,54.6,29.81,SW,236,17.3,17.3,74,0.00,CLR,,0.17,1009.0,WeatherDisplay:10.37,2013-05-18 10:20:00,
2013-05-18 12:25:00,63.1,54.3,29.81,South,188,16.1,16.1,73,0.00,BKN,,0.17,406.0,WeatherDisplay:10.37,2013-05-18 10:25:00,
2013-05-18 12:30:00,63.5,55.4,29.81,SSW,200,16.1,16.1,75,0.00,CLR,,0.17,318.0,WeatherDisplay:10.37,2013-05-18 10:30:00,
2013-05-18 12:35:00,63.0,54.9,29.81,SSW,207,19.6,19.6,75,0.00,CLR,,0.17,1028.0,WeatherDisplay:10.37,2013-05-18 10:35:00,
2013-05-18 12:40:00,63.6,54.4,29.81,SW,218,15.0,15.0,72,0.00,CLR,,0.17,1018.0,WeatherDisplay:10.37,2013-05-18 10:40:00,
2013-05-18 12:45:00,64.6,55.4,29.81,South,190,16.1,16.1,72,0.00,CLR,,0.17,1023.0,WeatherDisplay:10.37,2013-05-18 10:45:00,
2013-05-18 12:50:00,64.9,54.9,29.82,WSW,237,15.0,15.0,70,0.00,CLR,,0.17,1004.0,WeatherDisplay:10.37,2013-05-18 10:50:00,
2013-05-18 12:55:00,65.3,56.4,29.82,SSW,197,16.1,16.1,73,0.00,CLR,,0.17,995.0,WeatherDisplay:10.37,2013-05-18 10:55:00,
2013-05-18 13:00:00,64.6,55.7,29.82,SW,216,15.0,15.0,73,0.00,FEW,,0.17,914.0,WeatherDisplay:10.37,2013-05-18 11:00:00,
2013-05-18 13:05:00,64.9,56.4,29.82,SSW,211,11.5,11.5,74,0.00,FEW,,0.17,893.0,WeatherDisplay:10.37,2013-05-18 11:05:00,
2013-05-18 13:10:00,65.3,54.9,29.82,SSW,194,15.0,15.0,69,0.00,CLR,,0.17,895.0,WeatherDisplay:10.37,2013-05-18 11:10:00,
2013-05-18 13:15:00,65.3,55.7,29.82,SSW,210,15.0,15.0,71,0.00,FEW,,0.17,928.0,WeatherDisplay:10.37,2013-05-18 11:15:00,
2013-05-18 13:20:00,64.5,54.1,29.82,SSW,200,16.1,16.1,69,0.00,OVC,,0.17,348.0,WeatherDisplay:10.37,2013-05-18 11:20:00,
2013-05-18 13:25:00,63.7,54.5,29.82,SW,219,15.0,15.0,72,0.00,OVC,,0.17,383.0,WeatherDisplay:10.37,2013-05-18 11:25:00,
2013-05-18 13:30:00,63.6,53.6,29.83,SSW,201,11.5,11.5,70,0.00,OVC,,0.17,381.0,WeatherDisplay:10.37,2013-05-18 11:30:00,
2013-05-18 13:35:00,64.4,54.0,29.83,South,179,15.0,15.0,69,0.00,CLR,,0.17,1004.0,WeatherDisplay:10.37,2013-05-18 11:35:00,
2013-05-18 13:40:00,64.4,53.6,29.83,SW,217,13.0,13.0,68,0.00,FEW,,0.17,856.0,WeatherDisplay:10.37,2013-05-18 11:40:00,
2013-05-18 13:45:00,64.7,54.7,29.83,SSW,196,10.4,10.4,70,0.00,FEW,,0.17,861.0,WeatherDisplay:10.37,2013-05-18 11:45:00,
2013-05-18 13:50:00,64.7,53.5,29.83,SW,222,12.7,12.7,67,0.00,OVC,,0.17,274.0,WeatherDisplay:10.37,2013-05-18 11:50:00,
2013-05-18 13:55:00,64.8,54.0,29.83,South,176,11.5,11.5,68,0.00,CLR,,0.17,1027.0,WeatherDisplay:10.37,2013-05-18 11:55:00,
2013-05-18 14:00:00,64.5,52.9,29.83,SW,215,15.0,15.0,66,0.00,CLR,,0.17,1055.0,WeatherDisplay:10.37,2013-05-18 12:00:00,
2013-05-18 14:05:00,65.5,53.4,29.83,SW,217,12.7,12.7,65,0.00,CLR,,0.17,962.0,WeatherDisplay:10.37,2013-05-18 12:05:00,
2013-05-18 14:10:00,64.4,52.4,29.83,SW,220,11.0,11.0,65,0.00,BKN,,0.17,438.0,WeatherDisplay:10.37,2013-05-18 12:10:00,
2013-05-18 14:15:00,64.3,52.3,29.83,SW,215,13.0,13.0,65,0.00,SCT,,0.17,545.0,WeatherDisplay:10.37,2013-05-18 12:15:00,
2013-05-18 14:20:00,65.1,51.8,29.84,South,181,10.4,10.4,62,0.00,FEW,,0.17,424.0,WeatherDisplay:10.37,2013-05-18 12:20:00,
2013-05-18 14:25:00,65.1,52.2,29.84,SSW,199,10.4,10.4,63,0.00,SCT,,0.17,874.0,WeatherDisplay:10.37,2013-05-18 12:25:00,
2013-05-18 14:30:00,64.9,51.6,29.83,SSW,211,9.2,9.2,62,0.00,OVC,,0.17,373.0,WeatherDisplay:10.37,2013-05-18 12:30:00,
2013-05-18 14:35:00,65.4,52.0,29.84,SSW,200,13.0,13.0,62,0.00,CLR,,0.17,939.0,WeatherDisplay:10.37,2013-05-18 12:35:00,
2013-05-18 14:40:00,66.2,53.2,29.83,WSW,241,11.0,11.0,63,0.00,FEW,,0.17,877.0,WeatherDisplay:10.37,2013-05-18 12:40:00,
2013-05-18 14:45:00,66.3,52.0,29.83,SSW,195,11.5,11.5,60,0.00,FEW,,0.17,861.0,WeatherDisplay:10.37,2013-05-18 12:45:00,
2013-05-18 14:50:00,66.7,52.4,29.84,SW,234,11.5,11.5,60,0.00,FEW,,0.17,858.0,WeatherDisplay:10.37,2013-05-18 12:50:00,
2013-05-18 14:55:00,66.1,54.0,29.84,South,189,11.5,11.5,65,0.00,CLR,,0.17,881.0,WeatherDisplay:10.37,2013-05-18 12:55:00,
2013-05-18 15:00:00,66.2,52.3,29.84,SSW,205,10.4,10.4,61,0.00,CLR,,0.17,944.0,WeatherDisplay:10.37,2013-05-18 13:00:00,
2013-05-18 15:05:00,66.7,52.8,29.84,SSW,211,12.7,12.7,61,0.00,CLR,,0.17,861.0,WeatherDisplay:10.37,2013-05-18 13:05:00,
2013-05-18 15:10:00,66.0,52.2,29.84,SW,217,12.7,12.7,61,0.00,FEW,,0.17,814.0,WeatherDisplay:10.37,2013-05-18 13:10:00,
2013-05-18 15:15:00,66.2,52.3,29.83,SW,215,10.0,10.0,61,0.00,FEW,,0.17,749.0,WeatherDisplay:10.37,2013-05-18 13:15:00,
2013-05-18 15:20:00,66.9,54.3,29.83,SSW,213,14.0,14.0,64,0.00,FEW,,0.17,751.0,WeatherDisplay:10.37,2013-05-18 13:20:00,
2013-05-18 15:25:00,66.9,53.5,29.83,WSW,238,15.0,15.0,62,0.00,FEW,,0.17,747.0,WeatherDisplay:10.37,2013-05-18 13:25:00,
2013-05-18 15:30:00,66.0,53.5,29.83,SW,231,13.0,13.0,64,0.00,OVC,,0.17,188.0,WeatherDisplay:10.37,2013-05-18 13:30:00,
2013-05-18 15:35:00,66.3,53.8,29.83,SW,227,11.0,11.0,64,0.00,CLR,,0.17,837.0,WeatherDisplay:10.37,2013-05-18 13:35:00,
2013-05-18 15:40:00,66.0,53.9,29.83,WSW,240,10.4,10.4,65,0.00,OVC,,0.17,206.0,WeatherDisplay:10.37,2013-05-18 13:40:00,
2013-05-18 15:45:00,66.9,53.9,29.83,SSW,208,12.7,12.7,63,0.00,FEW,,0.17,719.0,WeatherDisplay:10.37,2013-05-18 13:45:00,
2013-05-18 15:50:00,67.8,52.9,29.83,SW,215,12.7,12.7,59,0.00,FEW,,0.17,733.0,WeatherDisplay:10.37,2013-05-18 13:50:00,
2013-05-18 15:55:00,67.8,53.4,29.83,SSW,202,11.5,11.5,60,0.00,CLR,,0.17,740.0,WeatherDisplay:10.37,2013-05-18 13:55:00,
2013-05-18 16:00:00,67.8,52.9,29.83,SW,227,12.7,12.7,59,0.00,FEW,,0.17,689.0,WeatherDisplay:10.37,2013-05-18 14:00:00,
2013-05-18 16:05:00,68.2,53.8,29.83,SW,216,10.4,10.4,60,0.00,FEW,,0.17,682.0,WeatherDisplay:10.37,2013-05-18 14:05:00,
2013-05-18 16:10:00,68.4,53.5,29.83,SSW,204,9.2,9.2,59,0.00,FEW,,0.17,696.0,WeatherDisplay:10.37,2013-05-18 14:10:00,
2013-05-18 16:15:00,68.0,52.7,29.83,SW,228,7.0,7.0,58,0.00,OVC,,0.17,127.0,WeatherDisplay:10.37,2013-05-18 14:15:00,
2013-05-18 16:20:00,67.7,53.3,29.83,WSW,242,8.1,8.1,60,0.00,CLR,,0.17,682.0,WeatherDisplay:10.37,2013-05-18 14:20:00,
2013-05-18 16:25:00,68.2,52.4,29.83,SSW,200,10.4,10.4,57,0.00,FEW,,0.17,624.0,WeatherDisplay:10.37,2013-05-18 14:25:00,
2013-05-18 16:30:00,68.2,52.4,29.83,South,188,10.4,10.4,57,0.00,FEW,,0.17,624.0,WeatherDisplay:10.37,2013-05-18 14:30:00,
2013-05-18 16:35:00,68.1,51.8,29.83,SSW,202,11.5,11.5,56,0.00,FEW,,0.17,575.0,WeatherDisplay:10.37,2013-05-18 14:35:00,
2013-05-18 16:40:00,68.5,52.7,29.83,West,263,11.5,11.5,57,0.00,FEW,,0.17,566.0,WeatherDisplay:10.37,2013-05-18 14:40:00,
2013-05-18 16:45:00,68.6,52.3,29.83,WSW,241,9.2,9.2,56,0.00,OVC,,0.17,155.0,WeatherDisplay:10.37,2013-05-18 14:45:00,
2013-05-18 16:50:00,68.5,53.1,29.83,SW,217,10.0,10.0,58,0.00,FEW,,0.17,557.0,WeatherDisplay:10.37,2013-05-18 14:50:00,
2013-05-18 16:55:00,68.0,52.7,29.83,SW,236,8.1,8.1,58,0.00,BKN,,0.17,316.0,WeatherDisplay:10.37,2013-05-18 14:55:00,
2013-05-18 17:00:00,68.0,52.7,29.83,SW,215,6.9,6.9,58,0.00,FEW,,0.17,536.0,WeatherDisplay:10.37,2013-05-18 15:00:00,
2013-05-18 17:05:00,68.4,51.6,29.83,South,191,11.5,11.5,55,0.00,FEW,,0.17,490.0,WeatherDisplay:10.37,2013-05-18 15:05:00,
2013-05-18 17:10:00,68.7,51.9,29.83,SSW,198,9.2,9.2,55,0.00,FEW,,0.17,478.0,WeatherDisplay:10.37,2013-05-18 15:10:00,
2013-05-18 17:15:00,69.0,52.6,29.83,SW,226,8.1,8.1,56,0.00,FEW,,0.17,459.0,WeatherDisplay:10.37,2013-05-18 15:15:00,
2013-05-18 17:20:00,69.5,53.1,29.83,WSW,250,6.0,6.0,56,0.00,FEW,,0.17,441.0,WeatherDisplay:10.37,2013-05-18 15:20:00,
2013-05-18 17:25:00,69.4,52.0,29.83,SW,223,8.1,8.1,54,0.00,FEW,,0.17,429.0,WeatherDisplay:10.37,2013-05-18 15:25:00,
2013-05-18 17:30:00,69.4,53.0,29.83,WSW,257,6.0,6.0,56,0.00,FEW,,0.17,424.0,WeatherDisplay:10.37,2013-05-18 15:30:00,
2013-05-18 17:35:00,69.3,53.4,29.83,WSW,248,8.1,8.1,57,0.00,FEW,,0.17,404.0,WeatherDisplay:10.37,2013-05-18 15:35:00,
2013-05-18 17:40:00,69.4,54.0,29.83,SW,229,5.0,5.0,58,0.00,FEW,,0.17,392.0,WeatherDisplay:10.37,2013-05-18 15:40:00,
2013-05-18 17:45:00,69.5,53.6,29.83,SW,234,6.9,6.9,57,0.00,FEW,,0.17,378.0,WeatherDisplay:10.37,2013-05-18 15:45:00,
2013-05-18 17:50:00,69.4,52.5,29.83,SW,231,5.0,5.0,55,0.00,FEW,,0.17,364.0,WeatherDisplay:10.37,2013-05-18 15:50:00,
2013-05-18 17:55:00,69.4,53.5,29.83,SSW,213,5.0,5.0,57,0.00,FEW,,0.17,352.0,WeatherDisplay:10.37,2013-05-18 15:55:00,
2013-05-18 18:00:00,69.6,53.2,29.83,WSW,246,5.8,5.8,56,0.00,FEW,,0.17,339.0,WeatherDisplay:10.37,2013-05-18 16:00:00,
2013-05-18 18:05:00,69.4,54.0,29.83,SW,231,5.8,5.8,58,0.00,FEW,,0.17,323.0,WeatherDisplay:10.37,2013-05-18 16:05:00,
2013-05-18 18:10:00,69.1,53.2,29.82,SW,232,4.0,4.0,57,0.00,SCT,,0.17,299.0,WeatherDisplay:10.37,2013-05-18 16:10:00,
2013-05-18 18:15:00,69.1,52.7,29.82,West,281,4.0,4.0,56,0.00,SCT,,0.17,294.0,WeatherDisplay:10.37,2013-05-18 16:15:00,
2013-05-18 18:20:00,68.9,53.5,29.82,West,281,3.5,3.5,58,0.00,SCT,,0.17,279.0,WeatherDisplay:10.37,2013-05-18 16:20:00,
2013-05-18 18:25:00,68.6,51.8,29.82,West,281,3.5,3.5,55,0.00,SCT,,0.17,265.0,WeatherDisplay:10.37,2013-05-18 16:25:00,
2013-05-18 18:30:00,68.9,53.0,29.82,West,281,2.3,2.3,57,0.00,SCT,,0.17,250.0,WeatherDisplay:10.37,2013-05-18 16:30:00,
2013-05-18 18:35:00,69.3,53.4,29.82,West,281,3.5,3.5,57,0.00,SCT,,0.17,239.0,WeatherDisplay:10.37,2013-05-18 16:35:00,
2013-05-18 18:41:00,69.3,52.9,29.82,West,281,3.5,3.5,56,0.00,SCT,,0.17,225.0,WeatherDisplay:10.37,2013-05-18 16:41:00,
2013-05-18 18:46:00,69.0,53.6,29.82,West,281,3.5,3.5,58,0.00,SCT,,0.17,209.0,WeatherDisplay:10.37,2013-05-18 16:46:00,
2013-05-18 18:51:00,68.6,54.6,29.82,West,281,3.5,3.5,61,0.00,BKN,,0.17,151.0,WeatherDisplay:10.37,2013-05-18 16:51:00,
2013-05-18 18:56:00,68.1,54.6,29.82,West,281,3.5,3.5,62,0.00,OVC,,0.17,72.0,WeatherDisplay:10.37,2013-05-18 16:56:00,
2013-05-18 19:01:00,67.5,53.1,29.82,West,281,3.5,3.5,60,0.00,OVC,,0.17,47.0,WeatherDisplay:10.37,2013-05-18 17:01:00,
2013-05-18 19:06:00,67.0,53.5,29.82,West,281,2.3,2.3,62,0.00,OVC,,0.17,42.0,WeatherDisplay:10.37,2013-05-18 17:06:00,
2013-05-18 19:11:00,66.6,53.6,29.82,West,281,3.5,3.5,63,0.00,OVC,,0.17,40.0,WeatherDisplay:10.37,2013-05-18 17:11:00,
2013-05-18 19:16:00,66.3,53.8,29.82,West,281,2.3,2.3,64,0.00,OVC,,0.17,39.0,WeatherDisplay:10.37,2013-05-18 17:16:00,
2013-05-18 19:21:00,65.8,53.7,29.82,West,281,3.5,3.5,65,0.00,OVC,,0.17,39.0,WeatherDisplay:10.37,2013-05-18 17:21:00,
2013-05-18 19:26:00,65.3,51.9,29.81,WNW,282,2.3,2.3,62,0.00,OVC,,0.17,37.0,WeatherDisplay:10.37,2013-05-18 17:26:00,
2013-05-18 19:31:00,65.1,53.5,29.81,West,281,2.3,2.3,66,0.00,OVC,,0.17,35.0,WeatherDisplay:10.37,2013-05-18 17:31:00,
2013-05-18 19:37:00,64.6,53.8,29.82,West,281,3.5,3.5,68,0.00,OVC,,0.17,35.0,WeatherDisplay:10.37,2013-05-18 17:37:00,
2013-05-18 19:42:00,64.2,53.0,29.81,West,281,3.5,3.5,67,0.00,OVC,,0.17,30.0,WeatherDisplay:10.37,2013-05-18 17:42:00,
2013-05-18 19:47:00,63.9,53.9,29.81,West,281,2.3,2.3,70,0.00,OVC,,0.17,28.0,WeatherDisplay:10.37,2013-05-18 17:47:00,
2013-05-18 19:52:00,63.4,53.8,29.82,West,281,1.2,0.0,71,0.00,OVC,,0.17,26.0,WeatherDisplay:10.37,2013-05-18 17:52:00,
2013-05-18 19:57:00,63.1,53.9,29.81,West,281,2.3,2.3,72,0.00,OVC,,0.17,26.0,WeatherDisplay:10.37,2013-05-18 17:57:00,
2013-05-18 20:02:00,62.8,53.3,29.81,West,281,1.2,1.2,71,0.00,OVC,,0.17,23.0,WeatherDisplay:10.37,2013-05-18 18:02:00,
2013-05-18 20:07:00,62.5,53.3,29.81,West,281,3.5,3.5,72,0.00,OVC,,0.17,21.0,WeatherDisplay:10.37,2013-05-18 18:07:00,
2013-05-18 20:12:00,62.1,53.0,29.81,West,281,2.3,2.3,72,0.00,OVC,,0.17,18.0,WeatherDisplay:10.37,2013-05-18 18:12:00,
2013-05-18 20:17:00,61.9,52.8,29.81,West,281,3.0,3.0,72,0.00,OVC,,0.17,16.0,WeatherDisplay:10.37,2013-05-18 18:17:00,
2013-05-18 20:22:00,61.6,52.5,29.82,West,281,2.3,2.3,72,0.00,OVC,,0.17,14.0,WeatherDisplay:10.37,2013-05-18 18:22:00,
2013-05-18 20:27:00,61.2,52.1,29.81,West,281,3.5,3.5,72,0.00,OVC,,0.17,11.0,WeatherDisplay:10.37,2013-05-18 18:27:00,
2013-05-18 20:32:00,60.8,51.7,29.82,West,281,2.3,2.3,72,0.00,OVC,,0.17,9.0,WeatherDisplay:10.37,2013-05-18 18:32:00,
2013-05-18 20:37:00,60.5,51.8,29.82,West,281,2.3,2.3,73,0.00,BKN,,0.17,7.0,WeatherDisplay:10.37,2013-05-18 18:37:00,
2013-05-18 20:42:00,60.2,51.5,29.82,West,281,2.0,2.0,73,0.00,FEW,,0.17,5.0,WeatherDisplay:10.37,2013-05-18 18:42:00,
2013-05-18 20:47:00,59.9,52.0,29.82,WNW,282,2.3,2.3,75,0.00,OVC,,0.17,0.0,WeatherDisplay:10.37,2013-05-18 18:47:00,
2013-05-18 20:52:00,59.6,51.3,29.82,WNW,282,1.2,1.2,74,0.00,OVC,,0.17,0.0,WeatherDisplay:10.37,2013-05-18 18:52:00,
2013-05-18 20:57:00,59.3,51.4,29.82,West,281,0.0,0.0,75,0.00,OVC,,0.17,0.0,WeatherDisplay:10.37,2013-05-18 18:57:00,
2013-05-18 21:02:00,58.9,51.3,29.82,West,281,0.0,0.0,76,0.00,CLR,,0.17,0.0,WeatherDisplay:10.37,2013-05-18 19:02:00,
2013-05-18 21:07:00,58.6,51.1,29.82,West,281,1.2,1.2,76,0.00,CLR,,0.17,0.0,WeatherDisplay:10.37,2013-05-18 19:07:00,
2013-05-18 21:12:00,58.3,51.1,29.82,WNW,282,1.2,0.0,77,0.00,CLR,,0.17,0.0,WeatherDisplay:10.37,2013-05-18 19:12:00,
2013-05-18 21:17:00,57.9,50.7,29.82,WNW,282,1.2,1.2,77,0.00,CLR,,0.17,0.0,WeatherDisplay:10.37,2013-05-18 19:17:00,
2013-05-18 21:22:00,57.6,50.8,29.82,West,281,1.2,1.2,78,0.00,CLR,,0.17,0.0,WeatherDisplay:10.37,2013-05-18 19:22:00,
2013-05-18 21:27:00,57.2,50.4,29.83,WNW,282,1.2,1.2,78,0.00,CLR,,0.17,0.0,WeatherDisplay:10.37,2013-05-18 19:27:00,
2013-05-18 21:32:00,56.9,50.1,29.83,West,281,0.0,0.0,78,0.00,CLR,,0.17,0.0,WeatherDisplay:10.37,2013-05-18 19:32:00,
2013-05-18 21:37:00,56.7,50.3,29.83,West,281,1.2,0.0,79,0.00,CLR,,0.17,0.0,WeatherDisplay:10.37,2013-05-18 19:37:00,
2013-05-18 21:42:00,56.4,50.3,29.83,West,281,2.3,2.3,80,0.00,CLR,,0.17,0.0,WeatherDisplay:10.37,2013-05-18 19:42:00,
2013-05-18 21:47:00,56.1,50.0,29.83,West,281,3.5,3.5,80,0.00,CLR,,0.17,0.0,WeatherDisplay:10.37,2013-05-18 19:47:00,
2013-05-18 21:52:00,55.9,49.8,29.83,West,281,3.5,3.5,80,0.00,CLR,,0.17,0.0,WeatherDisplay:10.37,2013-05-18 19:52:00,
2013-05-18 21:57:00,55.7,50.0,29.83,West,281,2.3,2.3,81,0.00,CLR,,0.17,0.0,WeatherDisplay:10.37,2013-05-18 19:57:00,
2013-05-18 22:02:00,55.6,49.5,29.83,WNW,282,2.3,2.3,80,0.00,CLR,,0.17,0.0,WeatherDisplay:10.37,2013-05-18 20:02:00,
2013-05-18 22:07:00,55.4,49.7,29.83,West,281,2.3,2.3,81,0.00,CLR,,0.17,0.0,WeatherDisplay:10.37,2013-05-18 20:07:00,
2013-05-18 22:12:00,55.3,49.6,29.83,West,281,1.2,1.2,81,0.00,CLR,,0.17,0.0,WeatherDisplay:10.37,2013-05-18 20:12:00,
2013-05-18 22:17:00,55.2,49.5,29.83,West,281,1.2,0.0,81,0.00,CLR,,0.17,0.0,WeatherDisplay:10.37,2013-05-18 20:17:00,
2013-05-18 22:22:00,55.0,49.3,29.83,West,281,0.0,0.0,81,0.00,CLR,,0.17,0.0,WeatherDisplay:10.37,2013-05-18 20:22:00,
2013-05-18 22:27:00,54.7,49.3,29.83,WNW,282,0.0,0.0,82,0.00,CLR,,0.17,0.0,WeatherDisplay:10.37,2013-05-18 20:27:00,
2013-05-18 22:32:00,54.4,49.0,29.83,West,281,3.5,3.5,82,0.00,CLR,,0.17,0.0,WeatherDisplay:10.37,2013-05-18 20:32:00,
2013-05-18 22:37:00,54.1,48.7,29.83,WNW,282,2.3,2.3,82,0.00,CLR,,0.17,0.0,WeatherDisplay:10.37,2013-05-18 20:37:00,
2013-05-18 22:42:00,53.8,48.4,29.83,West,281,2.3,2.3,82,0.00,CLR,,0.17,0.0,WeatherDisplay:10.37,2013-05-18 20:42:00,
2013-05-18 22:47:00,53.5,48.5,29.83,West,281,0.0,0.0,83,0.00,CLR,,0.17,0.0,WeatherDisplay:10.37,2013-05-18 20:47:00,
2013-05-18 22:52:00,53.3,48.3,29.83,WNW,282,2.3,2.3,83,0.00,CLR,,0.17,0.0,WeatherDisplay:10.37,2013-05-18 20:52:00,
2013-05-18 22:57:00,53.1,48.1,29.83,WNW,282,2.3,2.3,83,0.00,CLR,,0.17,0.0,WeatherDisplay:10.37,2013-05-18 20:57:00,
2013-05-18 23:02:00,53.1,48.1,29.83,WNW,282,3.0,3.0,83,0.00,CLR,,0.17,0.0,WeatherDisplay:10.37,2013-05-18 21:02:00,
2013-05-18 23:07:00,53.0,48.0,29.83,West,281,2.3,2.3,83,0.00,CLR,,0.17,0.0,WeatherDisplay:10.37,2013-05-18 21:07:00,
2013-05-18 23:12:00,52.9,47.9,29.83,West,281,2.3,2.3,83,0.00,CLR,,0.17,0.0,WeatherDisplay:10.37,2013-05-18 21:12:00,
2013-05-18 23:17:00,52.8,47.8,29.83,West,281,3.5,3.5,83,0.00,CLR,,0.17,0.0,WeatherDisplay:10.37,2013-05-18 21:17:00,
2013-05-18 23:22:00,52.7,47.7,29.83,West,281,2.3,2.3,83,0.00,CLR,,0.17,0.0,WeatherDisplay:10.37,2013-05-18 21:22:00,
2013-05-18 23:27:00,52.6,47.6,29.83,West,281,1.2,0.0,83,0.00,CLR,,0.17,0.0,WeatherDisplay:10.37,2013-05-18 21:27:00,
2013-05-18 23:32:00,52.5,47.8,29.83,WNW,282,0.0,0.0,84,0.00,CLR,,0.17,0.0,WeatherDisplay:10.37,2013-05-18 21:32:00,
2013-05-18 23:37:00,52.2,47.5,29.83,WNW,282,0.0,0.0,84,0.00,CLR,,0.17,0.0,WeatherDisplay:10.37,2013-05-18 21:37:00,
2013-05-18 23:42:00,52.0,47.3,29.83,WNW,282,0.0,0.0,84,0.00,CLR,,0.17,0.0,WeatherDisplay:10.37,2013-05-18 21:42:00,
2013-05-18 23:47:00,51.8,47.1,29.83,West,281,0.0,0.0,84,0.00,CLR,,0.17,0.0,WeatherDisplay:10.37,2013-05-18 21:47:00,
2013-05-18 23:52:00,51.5,46.8,29.83,WNW,282,0.0,0.0,84,0.00,CLR,,0.17,0.0,WeatherDisplay:10.37,2013-05-18 21:52:00,
2013-05-18 23:57:00,51.4,46.7,29.83,WNW,282,0.0,0.0,84,0.00,CLR,,0.17,0.0,WeatherDisplay:10.37,2013-05-18 21:57:00,